Temperature
9 9 9 9 9 9 9 9 9 9 9 10 10 10 10 10 10 10 11 11 11 11 11 11 11 12 12 12 12 12 12 12 12 12 12 12 11 11 11 11 11 11 11
9 9 9 9 9 9 9 9 9 9 9 9 9 9 10 10 10 10 10 11 11 11 11 11 11 11 12 12 12 12 12 12 12 12 11 11 11 11 11 11 11 11 11
8 8 8 8 9 9 9 9 9 9 9 9 9 9 9 9 10 10 10 10 10 11 11 11 11 11 11 11 11 12 11 11 11 11 11 11 11 11 11 11 11 11 11
8 8 8 8 8 8 8 8 8 8 8 8 8 8 9 9 9 9 10 10 10 10 10 11 11 11 11 11 11 11 11 11 11 11 11 11 11 11 11 11 11 11 11
7 7 7 7 7 8 8 8 8 8 8 8 8 8 8 8 9 9 9 9 10 10 10 10 10 11 11 11 11 11 11 11 11 11 11 11 10 10 11 11 11 11 11
7 7 7 7 7 7 7 7 7 7 7 7 7 8 8 8 8 9 9 9 9 9 10 10 10 10 10 10 10 10 11 10 10 10 10 10 10 10 10 10 11 11 11
6 6 6 6 6 6 7 6 6 6 7 7 7 7 7 8 8 8 8 9 9 9 9 9 9 10 10 10 10 10 10 10 10 10 10 10 10 10 10 10 10 10 10
5 6 6 6 6 6 6 6 6 6 6 6 6 6 6 7 7 8 8 8 8 9 9 9 9 9 10 10 10 10 10 10 10 10 10 10 10 9 9 9 10 10 10
5 5 5 5 5 6 6 6 6 6 5 5 6 5 6 7 6 7 7 8 8 8 8 8 8 9 9 9 10 10 10 10 10 10 10 9 9 9 9 9 9 9 9
4 4 4 5 5 5 5 5 5 5 5 5 5 5 5 6 6 6 7 7 7 7 8 8 8 8 9 9 9 9 9 9 9 9 9 9 9 9 9 9 9 9 9
3 4 4 4 4 4 4 4 5 5 5 5 5 4 5 5 5 5 6 6 6 7 7 8 8 8 8 8 9 9 9 9 9 9 9 9 9 9 9 9 9 9 9
3 3 3 3 3 3 4 4 4 4 4 4 4 4 4 4 5 5 5 5 6 6 7 7 7 8 8 8 8 9 9 9 9 9 9 9 9 9 9 8 8 8 8
2 2 2 2 3 3 3 3 3 3 4 3 4 4 4 4 4 4 5 5 5 5 6 6 7 7 8 8 8 8 8 8 8 9 9 9 9 9 8 8 8 8 8
1 1 2 2 2 2 2 2 3 3 3 3 3 3 3 3 4 4 4 4 4 4 5 6 6 7 7 7 7 8 8 8 8 8 8 8 8 8 8 8 8 8 8
1 1 1 1 1 2 2 2 2 2 2 2 3 3 3 3 3 4 4 4 4 4 4 5 5 6 6 7 7 7 7 7 8 8 8 8 8 8 8 8 8 8 8
1 1 1 1 1 1 1 1 1 2 2 2 2 2 2 3 3 3 3 3 3 4 4 4 5 5 6 6 6 7 7 7 7 7 7 7 7 8 8 7 7 7 7
0 0 0 0 1 1 1 1 1 1 1 1 2 2 2 2 2 3 3 3 3 3 3 4 4 4 5 5 6 6 6 6 7 7 7 7 7 7 7 7 7 7 7
-0 -0 -0 -0 0 0 0 0 1 1 1 1 1 1 2 2 2 2 2 2 3 3 3 3 4 4 4 5 5 5 6 6 6 6 6 6 6 7 7 7 6 7 7
-1 -1 -1 -1 -1 -0 -0 0 0 0 1 1 1 1 1 1 1 2 2 2 2 3 3 3 3 3 4 4 4 5 5 5 6 6 6 6 6 6 6 6 6 6 6
-1 -1 -1 -1 -1 -1 -1 -1 -0 -0 0 0 1 1 1 1 1 1 2 2 2 2 2 2 2 3 3 3 4 4 5 5 5 5 5 5 5 5 6 6 6 5 5
-2 -2 -2 -2 -2 -2 -1 -1 -1 -1 -0 -0 0 0 1 1 1 1 1 1 2 2 2 2 2 2 2 3 3 4 4 4 4 4 4 5 5 5 5 5 5 5 5
-3 -3 -3 -3 -3 -2 -2 -2 -2 -1 -1 -1 -1 -0 -0 0 1 1 1 1 1 1 1 1 2 2 2 2 3 3 3 3 3 3 3 4 4 4 4 4 4 4 4
-4 -3 -3 -3 -3 -3 -3 -2 -2 -2 -2 -2 -1 -1 -1 -0 -0 0 0 0 1 1 1 1 1 1 2 2 2 2 2 2 2 3 3 3 3 3 3 4 4 4 3
-4 -4 -4 -4 -4 -3 -3 -3 -3 -3 -2 -2 -2 -2 -1 -1 -1 -1 -0 -0 -0 0 0 1 1 1 1 1 2 2 2 2 2 2 2 2 2 2 2 3 3 3 3
-5 -5 -5 -4 -4 -4 -4 -4 -3 -3 -3 -3 -2 -2 -2 -2 -1 -1 -1 -1 -1 -0 -0 -0 0 0 0 1 1 1 1 1 1 1 1 1 1 1 1 2 2 2 2
-6 -5 -5 -5 -5 -5 -4 -4 -4 -4 -4 -3 -3 -3 -3 -2 -2 -2 -2 -2 -1 -1 -1 -1 -1 -0 -0 0 0 0 0 0 0 0 1 1 1 0 0 1 1 1 1
Wind_Speed
0 0 1 1 2 2 1 1 1 1 0 0 0 0 0 0 1 1 2 1 0 0 1 3 5 5 6 6 6 5 6 7 6 6 6 5 5 6 6 6 6 6 6
0 1 1 1 1 2 2 2 2 1 1 1 1 1 1 1 2 2 2 2 1 1 1 3 5 6 5 6 6 5 5 6 6 6 5 5 5 5 5 5 5 5 5
1 1 1 1 1 2 2 2 2 2 1 1 2 2 2 2 2 3 3 3 3 3 2 3 4 6 6 5 5 6 5 6 6 6 5 5 5 5 5 5 4 4 4
1 1 1 1 2 2 3 2 2 2 2 2 2 2 2 2 3 3 4 4 4 4 4 3 4 5 5 6 6 6 6 5 6 6 6 5 5 4 4 4 4 4 3
2 2 2 2 2 2 3 3 3 3 3 2 2 3 3 3 4 4 4 4 4 4 4 4 5 5 4 5 6 7 7 6 6 7 7 6 5 4 4 4 4 3 3
3 2 2 2 2 2 3 4 4 3 3 3 3 3 4 4 4 4 4 4 5 5 5 5 5 6 6 6 6 7 7 7 6 7 7 7 7 6 5 4 3 3 3
3 3 2 2 2 3 3 4 4 4 3 2 2 3 4 5 5 4 4 4 5 5 5 5 5 6 6 7 7 6 6 7 7 7 8 8 8 7 6 5 5 4 4
3 3 3 3 3 3 4 4 4 4 3 3 3 2 3 4 4 4 4 4 5 5 5 6 6 6 5 6 6 7 7 7 7 8 8 9 9 9 8 8 7 6 5
4 4 5 4 4 4 4 5 5 6 5 5 4 3 3 4 3 4 5 4 4 4 4 5 6 6 6 6 7 8 8 8 8 9 9 10 9 9 9 9 8 8 7
5 5 6 6 5 4 5 5 5 5 6 6 5 5 5 3 3 3 4 5 5 5 5 4 5 6 7 7 7 8 8 9 9 9 10 11 10 11 11 10 10 9 8
6 6 6 6 6 5 6 6 6 6 6 7 6 5 5 5 6 5 6 5 5 5 5 6 6 6 7 7 7 7 8 10 10 10 10 11 11 11 11 11 11 10 9
6 7 7 7 7 6 6 7 7 8 7 8 8 7 6 6 6 6 7 7 7 6 6 6 6 6 6 6 7 7 9 10 10 10 10 11 11 11 11 11 11 10 10
6 7 7 7 7 7 7 7 8 8 9 9 9 9 8 8 7 7 7 6 7 6 5 6 6 6 6 6 7 7 10 10 10 10 10 10 10 9 10 11 11 10 10
7 7 8 8 9 8 8 8 8 9 9 10 11 11 9 9 8 8 7 6 7 7 6 7 5 7 7 7 7 8 9 10 11 11 11 10 9 9 9 10 11 10 9
7 8 8 9 9 9 9 9 8 9 10 10 11 11 11 9 8 8 8 8 8 8 8 7 5 6 6 7 7 8 9 10 11 12 12 11 10 10 9 9 9 9 9
8 8 8 8 9 9 9 9 9 10 11 11 9 11 11 10 9 9 9 9 9 9 9 7 6 6 6 7 8 9 9 10 12 13 13 12 12 11 10 10 9 9 8
8 8 8 8 8 9 9 9 10 11 12 11 11 11 12 11 9 9 8 9 9 9 10 9 7 6 7 7 7 9 9 9 10 13 13 12 12 12 12 11 10 10 9
7 7 8 8 8 9 9 9 10 10 11 11 11 11 12 10 11 10 9 10 10 10 9 10 8 7 8 8 7 7 7 8 9 11 13 13 13 13 13 12 12 11 11
7 8 8 9 9 9 9 10 10 10 11 11 11 12 12 12 12 10 10 10 9 9 8 9 8 7 6 6 7 7 7 6 7 9 12 13 13 13 13 13 13 12 12
7 8 8 9 9 9 10 10 10 10 11 11 11 11 11 12 12 11 10 11 10 9 9 9 8 7 7 6 6 6 6 6 5 6 8 10 11 13 14 14 13 13 12
7 8 9 9 9 9 9 10 10 10 11 11 11 11 11 12 12 11 10 11 10 9 9 9 8 8 7 6 7 6 7 5 5 5 5 6 7 8 9 11 13 13 12
7 7 8 9 9 9 10 11 11 10 10 10 11 11 11 12 12 14 14 13 12 11 11 10 9 10 10 8 7 7 6 5 5 4 5 5 5 6 7 8 10 12 13
7 8 8 8 9 10 11 12 12 10 9 10 10 10 9 9 11 12 13 13 12 12 12 12 12 11 10 8 8 9 8 8 7 4 5 6 5 6 6 8 10 12 12
7 7 7 8 9 9 10 11 10 10 9 10 10 10 9 9 9 9 10 10 11 10 10 10 10 10 9 8 9 9 9 6 5 4 5 5 5 5 4 6 10 12 12
7 7 7 7 8 8 9 10 10 8 8 9 9 9 9 9 9 9 9 10 10 9 9 10 10 10 10 10 9 6 7 6 5 5 4 4 4 3 3 4 6 10 11
7 7 7 7 8 8 8 9 9 7 8 8 8 8 9 10 9 9 9 10 10 9 7 7 7 7 8 8 9 9 8 8 5 4 4 4 4 3 3 3 3 5 7
Wind_Direction
137 128 200 187 196 193 192 211 213 199 189 162 202 264 270 302 224 185 166 127 120 317 193 182 170 155 156 151 144 133 136 136 131 125 125 123 116 110 110 111 108 106 101
202 260 244 227 216 216 216 224 230 231 232 231 238 257 273 267 251 222 208 189 184 253 254 216 186 176 170 164 157 154 149 152 143 134 127 128 128 126 124 116 119 119 112
240 243 255 243 234 228 216 223 224 229 232 232 238 248 262 260 252 243 222 216 213 216 242 244 207 192 188 182 172 169 163 164 156 149 143 135 131 129 131 131 125 127 126
251 248 248 260 253 237 219 219 225 227 226 233 239 245 252 254 252 248 227 224 229 224 222 232 225 206 199 189 182 179 179 175 172 165 162 157 146 136 144 147 141 132 133
238 250 251 254 254 244 234 219 220 229 232 238 244 249 255 253 249 244 234 233 235 235 231 224 217 210 208 199 194 193 191 186 184 180 178 176 170 160 157 163 172 167 158
248 248 259 253 250 250 236 223 218 226 231 235 246 257 260 255 249 239 239 237 233 237 235 228 219 211 208 208 203 199 201 203 201 194 188 185 185 186 184 179 180 182 177
262 262 259 257 255 243 244 236 224 220 225 226 247 265 261 250 248 241 237 238 230 232 235 231 226 222 210 209 209 207 208 208 212 210 201 197 196 198 200 202 202 202 198
259 260 261 251 253 250 246 241 227 219 226 219 238 249 257 244 239 244 243 244 242 232 235 236 233 230 221 214 210 212 216 216 216 216 211 209 207 210 210 208 208 209 211
255 256 259 253 245 243 238 241 236 225 221 226 227 232 243 247 264 235 237 240 244 243 245 246 244 241 234 227 218 214 214 220 223 224 217 216 217 218 217 215 213 215 217
255 254 255 253 246 243 239 238 240 239 224 221 229 243 253 262 249 250 232 237 248 250 250 246 246 247 240 230 225 222 218 221 225 228 224 222 223 223 222 220 219 220 219
250 248 249 249 247 245 245 241 241 240 232 225 226 232 238 242 242 250 254 250 251 246 249 254 250 243 239 234 226 223 221 224 227 232 229 227 227 227 222 223 222 223 223
248 247 246 247 247 247 246 248 243 239 238 236 228 227 230 233 236 243 253 252 255 257 252 249 249 242 235 234 230 222 221 224 228 232 231 229 228 229 225 222 222 223 225
252 248 245 245 245 247 248 246 245 243 240 240 235 231 233 236 238 245 253 257 262 263 253 247 240 239 239 238 242 231 223 223 228 232 231 228 228 228 227 224 222 224 227
254 258 249 245 245 245 247 246 245 244 243 240 242 237 236 237 236 239 246 251 260 258 247 248 244 237 241 242 250 238 229 224 227 230 230 226 224 224 224 223 221 219 217
257 255 253 249 246 244 245 247 246 244 244 241 242 239 235 236 237 239 241 238 247 255 252 248 243 235 245 247 243 239 243 233 230 228 227 225 219 218 219 218 210 209 213
257 255 254 253 249 247 245 244 247 246 244 243 242 241 239 236 235 237 238 238 242 247 253 249 247 256 251 254 244 240 244 239 231 226 223 220 215 215 215 214 209 209 212
255 252 253 252 252 251 249 247 247 247 243 243 242 242 242 239 236 237 239 238 241 241 250 259 258 255 247 253 249 243 239 237 234 225 220 220 218 216 214 214 212 214 216
258 253 252 252 250 251 252 251 251 246 242 242 242 242 243 239 236 236 237 239 243 241 246 254 258 255 255 253 252 245 242 238 238 226 219 218 219 217 217 216 216 218 220
263 258 253 252 251 251 251 251 249 245 242 242 242 241 242 241 239 236 238 239 243 242 243 248 252 254 258 252 252 250 247 243 241 227 222 219 216 216 219 221 219 219 221
267 260 256 255 254 252 252 251 249 244 241 242 243 242 242 241 243 240 239 241 240 239 240 241 245 247 252 248 242 241 245 239 239 226 227 224 218 218 219 220 220 219 220
271 266 259 256 257 253 252 250 247 247 243 243 244 243 243 242 245 248 243 243 238 236 237 239 241 244 245 237 237 237 242 242 249 229 228 225 220 221 219 214 213 215 218
276 271 266 261 259 253 256 254 251 250 246 244 246 247 246 244 245 249 246 246 242 234 235 238 240 239 243 242 245 240 234 234 249 217 220 234 226 227 226 223 213 210 215
282 272 268 264 263 262 261 257 254 252 250 249 248 248 248 249 246 247 244 244 244 240 237 237 240 242 244 239 241 242 236 234 243 230 221 238 232 235 229 221 212 211 215
284 278 273 270 267 270 272 263 258 254 256 254 251 249 251 252 248 251 247 245 245 240 237 237 240 243 245 244 239 241 242 244 257 241 220 235 232 238 238 226 211 209 212
287 281 276 274 272 276 279 271 260 253 255 256 255 253 251 252 257 255 250 246 247 246 243 242 248 251 248 246 242 237 227 224 241 245 234 227 231 244 244 238 214 205 207
287 282 278 276 274 275 281 277 263 252 254 256 256 253 251 254 258 253 249 245 245 246 245 248 251 251 244 238 231 228 221 217 225 239 231 215 212 219 236 238 223 210 209
Height
1536 1536 1537 1538 1538 1539 1539 1539 1540 1540 1540 1540 1540 1541 1541 1541 1542 1542 1542 1542 1543 1544 1544 1545 1545 1546 1546 1547 1547 1547 1548 1549 1549 1550 1550 1550 1551 1551 1551 1551 1551 1552 1552
1534 1534 1535 1535 1536 1537 1537 1538 1538 1538 1539 1539 1539 1539 1539 1540 1540 1540 1541 1541 1541 1542 1543 1543 1544 1544 1545 1546 1546 1547 1547 1548 1549 1549 1549 1550 1550 1551 1551 1551 1551 1552 1552
1532 1532 1533 1533 1534 1535 1535 1536 1536 1537 1537 1537 1537 1537 1538 1538 1538 1539 1539 1539 1540 1540 1541 1542 1542 1543 1544 1544 1545 1546 1546 1547 1548 1548 1549 1549 1550 1550 1550 1551 1551 1552 1552
1529 1530 1530 1530 1531 1532 1533 1533 1534 1534 1535 1535 1535 1535 1536 1536 1536 1537 1537 1537 1538 1539 1539 1540 1541 1541 1542 1542 1543 1544 1545 1546 1547 1547 1548 1548 1549 1549 1550 1550 1551 1551 1551
1526 1527 1527 1527 1528 1529 1530 1531 1531 1532 1532 1533 1533 1533 1533 1533 1534 1534 1535 1535 1536 1536 1537 1538 1538 1539 1540 1541 1541 1542 1543 1544 1545 1546 1546 1547 1548 1548 1549 1549 1550 1550 1550
1522 1523 1524 1524 1525 1525 1526 1527 1528 1529 1530 1530 1531 1531 1531 1531 1531 1531 1532 1533 1533 1534 1535 1535 1536 1537 1538 1538 1539 1540 1541 1542 1543 1544 1545 1545 1546 1546 1547 1548 1548 1549 1549
1518 1519 1520 1521 1521 1522 1522 1524 1525 1526 1527 1528 1528 1528 1528 1528 1528 1528 1529 1530 1530 1531 1532 1533 1533 1534 1535 1536 1537 1537 1539 1540 1541 1542 1543 1543 1544 1544 1545 1546 1546 1547 1547
1514 1515 1516 1516 1517 1518 1519 1520 1521 1522 1523 1525 1526 1526 1526 1527 1525 1525 1525 1526 1527 1528 1529 1530 1530 1531 1532 1532 1533 1535 1536 1537 1538 1539 1540 1541 1542 1542 1543 1543 1544 1545 1545
1510 1511 1511 1512 1513 1514 1514 1515 1517 1518 1519 1521 1522 1524 1524 1523 1522 1522 1522 1522 1523 1524 1525 1526 1527 1527 1528 1529 1530 1531 1532 1534 1535 1536 1538 1538 1539 1540 1540 1541 1542 1542 1543
1506 1507 1507 1508 1508 1509 1510 1511 1512 1513 1515 1516 1518 1519 1520 1520 1521 1519 1518 1519 1519 1520 1521 1522 1523 1524 1525 1525 1526 1528 1529 1531 1532 1533 1534 1535 1536 1537 1537 1538 1539 1540 1540
1501 1502 1503 1503 1504 1504 1505 1506 1508 1509 1509 1511 1512 1514 1515 1516 1516 1516 1515 1515 1515 1516 1516 1517 1519 1520 1521 1521 1522 1523 1525 1527 1528 1529 1531 1532 1533 1533 1534 1535 1536 1537 1537
1496 1497 1497 1498 1498 1499 1500 1501 1502 1504 1504 1506 1507 1508 1509 1511 1512 1512 1512 1511 1511 1511 1512 1513 1514 1515 1516 1517 1518 1519 1521 1522 1524 1525 1527 1528 1529 1530 1531 1531 1532 1533 1534
1491 1491 1492 1492 1493 1494 1495 1496 1497 1498 1499 1500 1502 1503 1504 1506 1507 1508 1508 1507 1507 1506 1507 1507 1509 1510 1511 1512 1513 1514 1516 1517 1519 1521 1522 1523 1525 1526 1527 1528 1528 1529 1530
1486 1486 1487 1487 1488 1488 1489 1490 1491 1491 1493 1494 1496 1497 1499 1500 1501 1502 1503 1503 1503 1502 1501 1502 1503 1504 1505 1506 1507 1508 1510 1512 1514 1516 1517 1519 1520 1521 1522 1523 1524 1525 1526
1481 1481 1481 1482 1482 1483 1483 1484 1485 1485 1487 1488 1489 1491 1492 1494 1495 1496 1498 1499 1499 1497 1496 1496 1497 1499 1500 1501 1501 1502 1504 1506 1508 1510 1512 1513 1515 1516 1517 1518 1520 1520 1521
1476 1476 1476 1476 1477 1477 1478 1478 1479 1479 1480 1481 1483 1484 1486 1487 1488 1490 1491 1492 1493 1493 1491 1490 1491 1492 1493 1494 1495 1497 1498 1500 1502 1504 1506 1507 1509 1510 1512 1513 1514 1515 1516
1470 1470 1470 1470 1471 1471 1471 1472 1472 1473 1473 1474 1476 1477 1479 1480 1481 1483 1484 1485 1486 1487 1485 1484 1486 1487 1488 1488 1489 1491 1492 1494 1496 1498 1500 1501 1503 1505 1506 1507 1508 1510 1510
1464 1464 1464 1464 1464 1464 1464 1465 1465 1466 1467 1467 1469 1470 1472 1473 1475 1476 1477 1478 1479 1480 1480 1479 1480 1481 1481 1482 1483 1485 1486 1487 1489 1491 1494 1495 1497 1499 1500 1501 1503 1504 1505
1458 1458 1458 1458 1458 1458 1458 1458 1458 1459 1460 1461 1462 1463 1465 1466 1467 1469 1470 1471 1472 1473 1474 1474 1474 1475 1475 1476 1477 1479 1480 1481 1483 1485 1487 1489 1491 1493 1494 1495 1497 1498 1499
1452 1452 1452 1451 1451 1451 1451 1451 1452 1452 1453 1454 1455 1456 1458 1459 1460 1461 1463 1464 1465 1466 1467 1468 1468 1469 1469 1470 1472 1473 1474 1476 1477 1479 1480 1482 1484 1486 1487 1489 1490 1491 1492
1447 1446 1446 1445 1445 1444 1444 1445 1445 1445 1446 1447 1448 1449 1450 1452 1453 1455 1456 1457 1458 1458 1460 1460 1461 1461 1462 1463 1465 1466 1467 1469 1470 1472 1473 1476 1477 1479 1480 1482 1483 1485 1486
1441 1440 1439 1439 1438 1438 1437 1438 1439 1439 1439 1440 1441 1442 1443 1444 1445 1447 1449 1449 1451 1451 1452 1453 1453 1454 1455 1457 1458 1460 1461 1462 1463 1466 1467 1468 1470 1472 1473 1475 1476 1478 1479
1435 1434 1433 1433 1432 1431 1431 1432 1432 1432 1432 1433 1434 1435 1436 1437 1438 1440 1441 1442 1442 1444 1445 1446 1446 1446 1448 1450 1452 1453 1454 1455 1456 1458 1461 1461 1463 1465 1467 1468 1469 1471 1473
1429 1428 1427 1426 1425 1424 1425 1425 1426 1426 1425 1426 1427 1427 1428 1429 1430 1432 1433 1433 1434 1436 1437 1439 1440 1440 1442 1444 1446 1447 1448 1449 1450 1452 1454 1455 1456 1458 1460 1461 1463 1465 1466
1424 1422 1421 1420 1419 1418 1419 1419 1419 1419 1419 1419 1419 1420 1421 1422 1423 1425 1426 1426 1427 1428 1430 1432 1432 1433 1435 1437 1439 1441 1441 1442 1443 1444 1447 1449 1449 1451 1453 1454 1456 1458 1460
1419 1417 1415 1414 1413 1413 1413 1413 1413 1413 1413 1413 1413 1414 1415 1416 1417 1418 1419 1420 1420 1421 1423 1424 1425 1426 1427 1429 1431 1433 1434 1436 1436 1438 1440 1442 1443 1446 1447 1448 1450 1452 1453